Tracking 35334 objects as of 12-Sep-2026
HD Live streaming from Space Station
objects crossing your sky now

STARLINK-31816

Track STARLINK-31816 now!
10-day predictions
STARLINK-31816 is classified as:


NORAD ID: 59742
Int'l Code: 2024-090N
Launch date: May 13, 2024
Source: United States (US)
Launch site: AIR FORCE EASTERN TEST RANGE (AFETR)
Your satellite tracking list
Your tracking list is empty




NASA's NSSDC Master Catalog

Two Line Element Set (TLE):
1 59742U 24090N   26255.29073359  .00000064  00000-0  11861-4 0  9991
2 59742  43.0021 210.0512 0001278 269.9044  90.1662 15.27575748131956
Source of the keplerian elements: AFSPC